Miscellaneous Local Product
Issued by NWS Hastings, NE

Home | Current Version | Previous Version | Graphics & Text | Print | Product List | Glossary On
Versions: 1 2 3 4 5 6 7 8 9 10 11 12 13 14 15 16 17 18 19 20 21 22 23 24 25 26 27 28 29 30 31 32 33 34 35 36 37 38 39 40 41 42 43 44 45 46 47 48 49 50
000
AXUS43 KGID 052102
MISGRI

GID CWA HOURLY WEATHER ROUNDUP
NATIONAL WEATHER SERVICE HASTINGS NE
400 PM CDT SUN JUL 05 2015

NOTE: "FAIR" INDICATES FEW OR NO CLOUDS BELOW 12,000 FEET WITH NO
SIGNIFICANT WEATHER AND/OR OBSTRUCTIONS TO VISIBILITY.

...SOUTH CENTRAL NEBRASKA...

CITY           SKY/WX    TMP DP  RH WIND       PRES   REMARKS
GRAND ISLAND   MOSUNNY   93  73  52 S16G29    29.78F HX 102
HASTINGS       SUNNY     96  68  39 S15G23    29.78F HX 101
KEARNEY        SUNNY     97  70  41 SE16G26   29.77F HX 103
ORD            MOSUNNY   90  70  51 S17G25    29.77F HX  95
YORK           SUNNY     90  75  62 S15G21    29.80F HX 100
AURORA         MOSUNNY   92  72  51 S20       29.78F HX 100
LEXINGTON      SUNNY     98  67  36 S12       29.77F HX 102
HOLDREGE       SUNNY     97  63  32 S15       29.77F HX  98
HEBRON         MOSUNNY   94  67  40 S17G24    29.80F HX  98

...NEBRASKA PANHANDLE...

CITY           SKY/WX    TMP DP  RH WIND       PRES   REMARKS
CHADRON        PTSUNNY   88  66  48 N18G24    29.82F HX  90
ALLIANCE       PTSUNNY   93  57  29 W5        29.82F HX  91
SCOTTSBLUFF    PTSUNNY   94  55  26 W8        29.82F HX  92
SIDNEY         MOSUNNY   94  53  25 N7        29.86S HX  91

...WESTERN AND NORTH CENTRAL NEBRASKA...

CITY           SKY/WX    TMP DP  RH WIND       PRES   REMARKS
VALENTINE      MOSUNNY   95  66  38 S10       29.76F HX  98
AINSWORTH      PTSUNNY   92  69  46 S12       29.77F HX  98
ONEILL         MOSUNNY   89  71  55 S15G22    29.78F HX  96
BROKEN BOW     MOSUNNY   91  70  49 S15G26    29.79F HX  96
IMPERIAL       SUNNY    101  56  22 S10G17    29.77F HX 100
NORTH PLATTE   SUNNY     93  67  42 S10       29.77F HX  96
MCCOOK         SUNNY    101  56  22 S12G22    29.73F HX 100

...EASTERN NEBRASKA...

CITY           SKY/WX    TMP DP  RH WIND       PRES   REMARKS
NORFOLK        MOSUNNY   87  74  64 S18       29.80S HX  95
SO SIOUX CITY  SUNNY     87  73  62 S16G24    29.80F HX  94
TEKAMAH        SUNNY     90  73  57 S18G28    29.82F HX  98
COLUMBUS       SUNNY     88  73  62 SE15G23   29.81F HX  96
ALBION         MOSUNNY   87  72  60 S15G24    29.80S HX  93
OMAHA EPPLEY   PTSUNNY   90  73  57 S21G30    29.83F HX  98
OFFUTT AFB     MOSUNNY   90  75  62 SE20      29.83F HX 100
MILLARD        SUNNY     89  76  65 S16G22    29.83S HX  99
LINCOLN        SUNNY     92  74  55 S21       29.81F HX 101
NEBRASKA CITY  MOSUNNY   89  69  52 S15G22    29.86F HX  93
BEATRICE       SUNNY     91  74  57 S15G23    29.83F HX 100
FALLS CITY     SUNNY     91  73  55 S17       29.85F HX  99

...NORTHERN KANSAS...

CITY           SKY/WX    TMP DP  RH WIND       PRES   REMARKS
GOODLAND       SUNNY     97  49  19 S16G24    29.81F HX  94
HILL CITY      SUNNY    103  60  24 SW22G32   29.77F HX 104
NORTON         CLEAR    100  52  19 S18G26    29.75F HX  98
PHILLIPSBURG   MOSUNNY  106  57  20 S16G30    29.75F HX 105
SMITH CENTER   MOSUNNY  102  61  25 S23G31    29.77F HX 103
HAYS           SUNNY    100  61  27 S20G30    29.80F HX 101
RUSSELL        LGT RAIN  98  60  28 S25G35    29.80F HX  98
CONCORDIA      MOSUNNY   93  66  40 S15       29.81F HX  96
SALINA         SUNNY    101  62  27 S23G32    29.82F HX 102
TOPEKA         MOSUNNY   91  73  55 SE14G21   29.89F HX  99



USA.gov is the U.S. government's official web portal to all federal, state and local government web resources and services.